map of TST home
TST - Airport
Location
City:  Trang, Trang, Thailand
ICAO:VTST
IATA:TST

Details
Type:Airport (Aerodrome, Airfield)
Use:Public/Civil
Latitude:730'31"N (7.508744)
Longitude:9937'00"E (99.616578)
Datum:WGS 1984
Elevation:67 ft (20 m)
Variation:0.41W (WMM2015v2 magnetic declination)
-0.01 annual change
Runways:1
Longest:6890 × 148 ft (2100 × 45 m), paved

Time
Time Zone:UTC+7
Local Time:

Weather
METAR:VTST 041300Z 06008KT 9999 FEW020 28/23 Q1011 NOSIG
TAF:VTST 041100Z 0412/0512 06007KT 9000 FEW020
BECMG 0412/0414 VRB02KT 8000
BECMG 0500/0502 08010KT 9999

Related Locations
Nearby:
Farthest:SPYO: 12393 mi / 19945 km
Pacasmayo [Pacasmayo Airport], LAL, PE

Find:

   beyond  
but within

Other Information
Maps:
NOTAMs:
Links:
Sources:

  
  • flag of Thailand
  

Sectional Chart

Flight Planning
at skyvector.com

Satellite Image

Google Maps Satellite view

 

Copyright © 2004-2019 Karl L. Swartz. All rights reserved.
The Great Circle Mapper name and logo are trademarks of the Great Circle Mapper.
All other trademarks mentioned herein belong to their respective owners.
Please see credits for attibutions and further copyright information.

  Follow gcmap on Facebook Follow gcmap on Twitter GCmap on LinkedIn

hCard Microformat

Geo Microformat